Date String (YYYY-MM-DD hh:mm:ss) UTC,Instrument flags,Ambient pressure (hPa),Sample flow (lpm),Bypass flow (lpm),Sample temperature (°C),Ambient temperature (°C),ASC tube jacket temperature (°C),LED temperature (°C),Box temperature (°C),Sample RH (%),Span deviation,Mass concentration (μg/m³),Mass concentration (μg/m³),Mass concentration (μg/m³)
DateTimeUTC,F1_M11,P_M11,Q1_M11,Q2_M11,T1_M11,T2_M11,T3_M11,T4_M11,T5_M11,U1_M11,ZSPAN_M11,X2_M11,X0_M11,X1_M11
2022-07-13 13:00:00,,0829.2,5.01,0.00,30.0,28.7,00.0,38.8,31.9,21.1,0000.0,0005.85,0013.11,0005.02
2022-07-13 13:01:00,,0829.2,4.99,0.00,30.0,28.7,00.0,38.9,31.9,21.7,0000.0,0005.83,0013.11,0005.01
2022-07-13 13:02:00,,0829.1,5.01,0.00,30.1,28.8,00.0,38.9,31.9,21.6,0000.0,0005.82,0013.30,0005.00
2022-07-13 13:03:00,,0829.1,4.99,0.00,30.1,28.9,00.0,38.9,31.9,21.3,0000.0,0005.88,0013.72,0004.98
2022-07-13 13:04:00,,0829.3,5.00,0.00,30.1,28.9,00.0,38.9,31.9,21.0,0000.0,0005.88,0013.62,0004.97
2022-07-13 13:05:00,,0829.2,5.00,0.00,30.1,28.9,00.0,38.9,32.0,21.6,0000.0,0005.88,0012.72,0004.97
2022-07-13 13:06:00,,0829.3,4.99,0.00,30.1,29.0,00.0,38.9,32.0,22.0,0000.0,0005.95,0012.68,0004.97
2022-07-13 13:07:00,,0829.2,5.01,0.00,30.1,29.0,00.0,38.9,32.0,22.6,0000.0,0005.98,0013.27,0004.97
2022-07-13 13:08:00,,0829.2,4.99,0.00,30.2,29.1,00.0,38.9,32.0,22.2,0000.0,0005.96,0013.88,0004.96
2022-07-13 13:09:00,,0829.2,5.01,0.00,30.2,29.1,00.0,38.9,32.1,22.7,0000.0,0005.96,0013.59,0004.96
2022-07-13 13:10:00,,0829.2,5.00,0.00,30.2,29.1,00.0,38.9,32.1,22.6,0000.0,0005.98,0014.08,0004.97
2022-07-13 13:11:00,,0829.2,5.00,0.00,30.2,29.1,00.0,39.0,32.1,23.0,0000.0,0006.01,0014.58,0004.97
2022-07-13 13:12:00,,0829.2,5.00,0.00,30.2,29.2,00.0,39.0,32.1,22.9,0000.0,0006.05,0015.39,0004.97
2022-07-13 13:13:00,,0829.3,5.01,0.00,30.3,29.2,00.0,39.0,32.1,22.7,0000.0,0006.16,0015.84,0004.98
2022-07-13 13:14:00,,0829.2,4.98,0.00,30.3,29.2,00.0,39.0,32.2,22.4,0000.0,0006.14,0015.70,0004.98
2022-07-13 13:15:00,,0829.2,5.01,0.00,30.3,29.2,00.0,39.0,32.2,23.6,0000.0,0006.18,0015.62,0004.99
2022-07-13 13:16:00,,0829.2,5.01,0.00,30.3,28.7,00.0,39.0,32.1,23.5,0000.0,0006.25,0016.35,0004.99
2022-07-13 13:17:00,,0829.2,5.00,0.00,30.2,27.9,00.0,38.9,32.0,23.0,0000.0,0006.23,0016.91,0004.98
2022-07-13 13:18:00,,0829.2,5.00,0.00,30.2,27.7,00.0,38.9,31.9,23.0,0000.0,0006.25,0016.46,0004.97
2022-07-13 13:19:00,,0829.2,5.00,0.00,30.1,27.7,00.0,38.9,31.8,22.5,0000.0,0006.24,0015.39,0004.95
2022-07-13 13:20:00,,0829.2,5.00,0.00,30.1,27.8,00.0,38.9,31.7,22.7,0000.0,0006.23,0015.48,0004.92
2022-07-13 13:21:00,,0829.2,5.00,0.00,30.0,27.9,00.0,38.9,31.7,23.1,0000.0,0006.22,0016.34,0004.90
2022-07-13 13:22:00,,0829.2,5.00,0.00,30.0,28.0,00.0,38.8,31.7,23.5,0000.0,0006.24,0015.66,0004.88
2022-07-13 13:23:00,,0829.3,4.99,0.00,30.0,28.1,00.0,38.8,31.7,23.2,0000.0,0006.21,0015.56,0004.86
2022-07-13 13:24:00,,0829.2,5.01,0.00,30.0,28.3,00.0,38.8,31.8,23.2,0000.0,0006.15,0015.52,0004.83
2022-07-13 13:25:00,,0829.3,4.99,0.00,30.0,28.4,00.0,38.8,31.8,23.3,0000.0,0006.12,0016.34,0004.81
2022-07-13 13:26:00,,0829.3,5.01,0.00,30.0,28.5,00.0,38.8,31.8,22.9,0000.0,0006.06,0016.41,0004.77
2022-07-13 13:27:00,,0829.3,5.00,0.00,30.0,28.6,00.0,38.8,31.8,22.8,0000.0,0005.96,0015.83,0004.74
2022-07-13 13:28:00,,0829.2,5.02,0.00,30.0,28.6,00.0,38.8,31.8,22.1,0000.0,0005.89,0016.16,0004.71
2022-07-13 13:29:00,,0829.2,5.00,0.00,30.0,28.7,00.0,38.8,31.9,23.4,0000.0,0005.86,0016.19,0004.71
2022-07-13 13:30:00,,0829.3,5.00,0.00,30.0,28.8,00.0,38.8,31.9,22.8,0000.0,0005.88,0016.80,0004.70
2022-07-13 13:31:00,,0829.3,5.02,0.00,30.0,28.8,00.0,38.8,31.9,22.3,0000.0,0005.92,0017.55,0004.70
2022-07-13 13:32:00,,0829.2,4.99,0.00,30.0,28.9,00.0,38.8,31.9,22.8,0000.0,0005.93,0017.17,0004.70
2022-07-13 13:33:00,,0829.2,5.00,0.00,30.1,28.9,00.0,38.8,32.0,23.1,0000.0,0005.95,0017.17,0004.69
2022-07-13 13:34:00,,0829.3,5.00,0.00,30.1,29.0,00.0,38.9,32.0,22.4,0000.0,0005.92,0016.75,0004.70
2022-07-13 13:35:00,,0829.3,5.00,0.00,30.1,29.0,00.0,38.9,32.0,22.3,0000.0,0005.89,0016.91,0004.69
2022-07-13 13:36:00,,0829.2,5.00,0.00,30.1,29.1,00.0,38.9,32.0,22.7,0000.0,0005.95,0016.70,0004.70
2022-07-13 13:37:00,,0829.2,5.00,0.00,30.2,29.1,00.0,38.9,32.0,22.6,0000.0,0005.97,0016.55,0004.70
2022-07-13 13:38:00,,0829.2,4.99,0.00,30.2,29.1,00.0,38.9,32.1,22.6,0000.0,0005.95,0016.67,0004.70
2022-07-13 13:39:00,,0829.2,5.00,0.00,30.2,29.2,00.0,38.9,32.1,21.9,0000.0,0005.93,0015.24,0004.71
2022-07-13 13:40:00,,0829.2,4.99,0.00,30.2,29.1,00.0,38.9,32.1,21.9,0000.0,0005.93,0015.16,0004.71
2022-07-13 13:41:00,,0829.1,5.01,0.00,30.2,28.4,00.0,38.9,32.0,22.1,0000.0,0005.94,0014.95,0004.72
2022-07-13 13:42:00,,0829.1,5.01,0.00,30.1,27.8,00.0,38.8,31.9,22.3,0000.0,0005.93,0014.36,0004.74
2022-07-13 13:43:00,,0829.1,4.99,0.00,30.1,27.7,00.0,38.8,31.8,22.0,0000.0,0005.89,0013.28,0004.74
2022-07-13 13:44:00,,0829.1,5.00,0.00,30.0,27.8,00.0,38.8,31.7,22.0,0000.0,0005.81,0013.28,0004.73
2022-07-13 13:45:00,,0829.2,5.00,0.00,30.0,27.9,00.0,38.8,31.7,22.4,0000.0,0005.78,0013.22,0004.72
2022-07-13 13:46:00,,0829.2,4.99,0.00,30.0,28.0,00.0,38.8,31.7,21.4,0000.0,0005.86,0013.01,0004.74
2022-07-13 13:47:00,,0829.2,5.00,0.00,30.0,28.1,00.0,38.8,31.7,21.5,0000.0,0005.85,0012.64,0004.75
2022-07-13 13:48:00,,0829.2,4.99,0.00,30.0,28.3,00.0,38.8,31.7,21.2,0000.0,0005.89,0012.80,0004.75
2022-07-13 13:49:00,,0829.2,5.01,0.00,30.0,28.4,00.0,38.8,31.7,21.8,0000.0,0005.92,0012.58,0004.76
2022-07-13 13:50:00,,0829.2,4.99,0.00,30.0,28.5,00.0,38.8,31.8,21.5,0000.0,0005.97,0012.68,0004.77
2022-07-13 13:51:00,,0829.3,5.00,0.00,30.0,28.6,00.0,38.8,31.8,21.3,0000.0,0006.00,0013.25,0004.77
2022-07-13 13:52:00,,0829.3,5.01,0.00,30.0,28.7,00.0,38.8,31.9,21.6,0000.0,0006.01,0013.23,0004.78
2022-07-13 13:53:00,,0829.2,5.00,0.00,30.0,28.8,00.0,38.8,31.9,21.2,0000.0,0006.02,0014.02,0004.78
2022-07-13 13:54:00,,0829.3,5.00,0.00,30.0,28.8,00.0,38.8,31.9,21.1,0000.0,0006.05,0014.50,0004.80
2022-07-13 13:55:00,,0829.3,5.00,0.00,30.1,28.9,00.0,38.8,32.0,21.3,0000.0,0006.08,0014.72,0004.81
2022-07-13 13:56:00,,0829.2,4.99,0.00,30.1,29.0,00.0,38.8,32.0,21.7,0000.0,0006.12,0015.06,0004.83
2022-07-13 13:57:00,,0829.2,5.00,0.00,30.1,29.0,00.0,38.8,32.0,21.7,0000.0,0006.13,0015.14,0004.83
2022-07-13 13:58:00,,0829.3,4.99,0.00,30.1,29.1,00.0,38.9,32.0,21.0,0000.0,0006.16,0015.07,0004.85
2022-07-13 13:59:00,,0829.2,5.01,0.00,30.2,29.1,00.0,38.9,32.1,21.2,0000.0,0006.11,0014.65,0004.86
